When you browse on this site, cookies collect data to enhance your experience and personalize the content and advertising you see.
Visit our Privacy Policy to learn more. By continuing to use the site, you agree to this use of cookies and data.
  • In Hungary
  • List of Countries
  • For 7 days
  • Water Temperature
  • Satellite Maps
  • Weather Map
  • News
  • Weather Widgets
  • user-avatar
    Login

    Hourly Weather Zadowice

    Today, 19 December, Wednesday

    Time Temperature Precipitation Wind Pressure Humidity
    00:00 -1°C° 0 mm 3 mps 759 mmHg 89%
    01:00 -2°C° 0 mm 3 mps 759 mmHg 88%
    02:00 -3°C° 0 mm 4 mps 758 mmHg 88%
    03:00 -3°C° 0 mm 4 mps 758 mmHg 87%
    04:00 -3°C° 0 mm 4 mps 758 mmHg 86%
    05:00 -3°C° 0 mm 4 mps 758 mmHg 86%
    06:00 -3°C° 0 mm 4 mps 758 mmHg 86%
    07:00 -5°C° 0 mm 5 mps 757 mmHg 88%
    08:00 -4°C° 0 mm 5 mps 757 mmHg 85%
    09:00 -4°C° 0 mm 5 mps 757 mmHg 82%
    10:00 -3°C° 0 mm 6 mps 757 mmHg 79%
    11:00 -3°C° 0 mm 6 mps 756 mmHg 77%
    12:00 -1°C° 0 mm 5 mps 756 mmHg 75%
    13:00 -1°C° 0 mm 5 mps 756 mmHg 73%
    14:00 -1°C° 0 mm 5 mps 755 mmHg 75%
    15:00 -2°C° 0 mm 5 mps 755 mmHg 76%
    16:00 -2°C° 0 mm 5 mps 755 mmHg 78%
    17:00 -2°C° 0 mm 5 mps 755 mmHg 78%
    18:00 -2°C° 0 mm 5 mps 754 mmHg 78%
    19:00 -2°C° 0 mm 5 mps 754 mmHg 78%
    20:00 -2°C° 0 mm 5 mps 754 mmHg 78%
    21:00 -2°C° 0 mm 5 mps 754 mmHg 77%
    22:00 -2°C° 0 mm 5 mps 754 mmHg 77%
    23:00 -2°C° 0 mm 4 mps 754 mmHg 77%

    Tomorrow, 20 December, Thursday

    Time Temperature Precipitation Wind Pressure Humidity
    00:00 -2°C° 0 mm 4 mps 753 mmHg 76%
    01:00 -2°C° 0 mm 4 mps 753 mmHg 76%
    02:00 -2°C° 0 mm 4 mps 753 mmHg 76%
    03:00 -1°C° 0 mm 3 mps 753 mmHg 76%
    04:00 -1°C° 0 mm 3 mps 753 mmHg 76%
    05:00 -1°C° 0 mm 3 mps 753 mmHg 76%
    06:00 -1°C° 0 mm 3 mps 753 mmHg 75%
    07:00 -1°C° 0 mm 3 mps 753 mmHg 75%
    08:00 -2°C° 0 mm 4 mps 753 mmHg 74%
    09:00 -2°C° 0 mm 4 mps 753 mmHg 74%
    10:00 -2°C° 0 mm 4 mps 753 mmHg 73%
    11:00 -2°C° 0 mm 4 mps 753 mmHg 73%
    12:00 -2°C° 0 mm 4 mps 752 mmHg 74%
    13:00 -2°C° 0 mm 4 mps 752 mmHg 74%
    14:00 -1°C° 0 mm 3 mps 752 mmHg 77%
    15:00 -1°C° 0 mm 3 mps 752 mmHg 80%
    16:00 -1°C° 0 mm 3 mps 752 mmHg 83%
    17:00 -1°C° 0.1 mm 3 mps 752 mmHg 85%
    18:00 -1°C° 0.1 mm 3 mps 752 mmHg 87%
    19:00 -1°C° 0.1 mm 3 mps 752 mmHg 89%
    20:00 0°C° 0.1 mm 3 mps 752 mmHg 89%
    21:00 0°C° 0.1 mm 3 mps 752 mmHg 90%
    22:00 -1°C° 0.1 mm 4 mps 752 mmHg 91%
    23:00 -1°C° 0 mm 4 mps 752 mmHg 91%

    Day after tomorrow, 21 December, Friday

    Time Temperature Precipitation Wind Pressure Humidity
    00:00 -1°C° 0 mm 4 mps 752 mmHg 91%
    01:00 -1°C° 0 mm 4 mps 752 mmHg 91%
    02:00 -1°C° 0 mm 4 mps 752 mmHg 91%
    03:00 -1°C° 0 mm 4 mps 752 mmHg 91%
    04:00 -1°C° 0 mm 4 mps 751 mmHg 91%
    05:00 -1°C° 0 mm 4 mps 751 mmHg 91%
    06:00 -1°C° 0 mm 4 mps 751 mmHg 91%
    07:00 -1°C° 0 mm 4 mps 751 mmHg 91%
    08:00 0°C° 0 mm 4 mps 750 mmHg 90%
    09:00 0°C° 0 mm 5 mps 750 mmHg 89%
    10:00 0°C° 0 mm 5 mps 750 mmHg 89%
    11:00 +1°C° 0 mm 5 mps 749 mmHg 88%
    12:00 +1°C° 0 mm 5 mps 749 mmHg 87%
    13:00 +1°C° 0 mm 5 mps 748 mmHg 87%
    14:00 +1°C° 0.1 mm 5 mps 747 mmHg 87%
    15:00 +1°C° 0.1 mm 5 mps 746 mmHg 88%
    16:00 +1°C° 0.1 mm 5 mps 746 mmHg 88%
    17:00 +1°C° 0.4 mm 5 mps 745 mmHg 88%
    18:00 +1°C° 0.4 mm 5 mps 744 mmHg 88%
    19:00 +1°C° 0.4 mm 5 mps 744 mmHg 88%
    20:00 +1°C° 0.9 mm 5 mps 743 mmHg 89%
    21:00 +1°C° 0.9 mm 6 mps 742 mmHg 90%
    22:00 +1°C° 0.9 mm 6 mps 741 mmHg 90%
    23:00 +2°C° 0.5 mm 6 mps 741 mmHg 89%

    22 December, Saturday

    Time Temperature Precipitation Wind Pressure Humidity
    00:00 +4°C° 0.5 mm 7 mps 740 mmHg 88%
    01:00 +5°C° 0.5 mm 7 mps 740 mmHg 87%
    02:00 +4°C° 0.1 mm 7 mps 740 mmHg 86%
    03:00 +4°C° 0.1 mm 7 mps 740 mmHg 84%
    04:00 +3°C° 0.1 mm 7 mps 740 mmHg 83%
    05:00 +3°C° 0 mm 7 mps 740 mmHg 83%
    06:00 +3°C° 0 mm 6 mps 741 mmHg 84%
    07:00 +2°C° 0 mm 6 mps 741 mmHg 85%
    08:00 +3°C° 0 mm 6 mps 741 mmHg 84%
    09:00 +3°C° 0 mm 6 mps 741 mmHg 84%
    10:00 +4°C° 0 mm 7 mps 742 mmHg 84%
    11:00 +4°C° 0.1 mm 7 mps 741 mmHg 84%
    12:00 +4°C° 0.1 mm 6 mps 741 mmHg 84%
    13:00 +5°C° 0.1 mm 6 mps 741 mmHg 83%
    14:00 +5°C° 1 mm 6 mps 741 mmHg 85%
    15:00 +5°C° 1 mm 6 mps 741 mmHg 87%
    16:00 +4°C° 1 mm 6 mps 741 mmHg 88%
    17:00 +5°C° 0.4 mm 6 mps 741 mmHg 87%
    18:00 +5°C° 0.4 mm 7 mps 741 mmHg 86%
    19:00 +5°C° 0.4 mm 7 mps 741 mmHg 85%
    20:00 +4°C° 0.1 mm 8 mps 742 mmHg 82%
    21:00 +3°C° 0.1 mm 9 mps 743 mmHg 79%
    22:00 +3°C° 0.1 mm 10 mps 743 mmHg 77%
    23:00 +2°C° 0.1 mm 10 mps 744 mmHg 77%

    23 December, Sunday

    Time Temperature Precipitation Wind Pressure Humidity
    00:00 +2°C° 0.1 mm 10 mps 745 mmHg 78%
    01:00 +1°C° 0.1 mm 9 mps 746 mmHg 79%
    02:00 +1°C° 0 mm 8 mps 747 mmHg 82%
    03:00 0°C° 0 mm 7 mps 748 mmHg 85%
    04:00 +1°C° 0 mm 5 mps 749 mmHg 87%
    05:00 +1°C° 0 mm 5 mps 750 mmHg 89%
    06:00 +1°C° 0 mm 4 mps 750 mmHg 91%
    07:00 +1°C° 0 mm 3 mps 751 mmHg 93%
    08:00 +3°C° 0 mm 2 mps 751 mmHg 92%
    09:00 +3°C° 0 mm 2 mps 751 mmHg 92%
    10:00 +3°C° 0 mm 2 mps 752 mmHg 92%
    11:00 +3°C° 0.1 mm 2 mps 752 mmHg 90%
    12:00 +4°C° 0.1 mm 2 mps 752 mmHg 88%
    13:00 +4°C° 0.1 mm 2 mps 752 mmHg 87%
    14:00 +4°C° 0.2 mm 2 mps 752 mmHg 88%
    15:00 +3°C° 0.2 mm 3 mps 752 mmHg 90%
    16:00 +3°C° 0.2 mm 3 mps 752 mmHg 91%
    17:00 +3°C° 0.1 mm 3 mps 752 mmHg 90%
    18:00 +3°C° 0.1 mm 4 mps 752 mmHg 89%
    19:00 +2°C° 0.1 mm 5 mps 752 mmHg 87%
    20:00 +3°C° 0 mm 4 mps 752 mmHg 87%
    21:00 +3°C° 0 mm 4 mps 752 mmHg 87%
    22:00 +3°C° 0 mm 4 mps 752 mmHg 87%
    23:00 +3°C° 0.1 mm 4 mps 752 mmHg 87%

    24 December, Monday

    Time Temperature Precipitation Wind Pressure Humidity
    00:00 +2°C° 0.1 mm 5 mps 752 mmHg 87%
    01:00 +2°C° 0.1 mm 5 mps 752 mmHg 87%
    02:00 +2°C° 0.1 mm 5 mps 752 mmHg 87%
    03:00 +2°C° 0.1 mm 6 mps 751 mmHg 87%
    04:00 +2°C° 0.1 mm 6 mps 751 mmHg 87%
    05:00 +2°C° 0.7 mm 6 mps 751 mmHg 87%
    06:00 +2°C° 0.7 mm 7 mps 751 mmHg 86%
    07:00 +2°C° 0.7 mm 7 mps 751 mmHg 85%
    08:00 +2°C° 0.1 mm 7 mps 752 mmHg 82%
    09:00 +1°C° 0.1 mm 8 mps 753 mmHg 80%
    10:00 +1°C° 0.1 mm 8 mps 753 mmHg 78%
    11:00 +2°C° 0 mm 7 mps 754 mmHg 77%
    12:00 +2°C° 0 mm 7 mps 754 mmHg 76%
    13:00 +2°C° 0 mm 7 mps 755 mmHg 75%
    14:00 +2°C° 0 mm 6 mps 756 mmHg 77%
    15:00 +1°C° 0 mm 5 mps 756 mmHg 79%
    16:00 +1°C° 0 mm 4 mps 757 mmHg 80%
    17:00 +1°C° 0.1 mm 4 mps 757 mmHg 82%
    18:00 +1°C° 0.1 mm 4 mps 757 mmHg 84%
    19:00 +1°C° 0.1 mm 4 mps 758 mmHg 85%
    20:00 +1°C° 0.1 mm 4 mps 758 mmHg 85%
    21:00 +1°C° 0.1 mm 4 mps 758 mmHg 85%
    22:00 +1°C° 0.1 mm 4 mps 759 mmHg 85%
    23:00 +1°C° 0 mm 4 mps 759 mmHg 85%
    Show more